FW93366 Weather Reports


time (UTC)temp
F
wind
direction
speed
knots
gust
knots
rain 1hr
in
rain 24hr
in
rain mn
in
humidity
%
barometer
mb
20260508203051 77 0 0.9 6.1 0.00 0.00 0.00 19 1019.4
20260508201549 76 80 1.7 6.1 0.00 0.00 0.00 17 1019.5
20260508200041 77 17 1.7 7.0 0.00 0.00 0.00 16 1019.6
20260508194540 75 109 2.6 6.1 0.00 0.00 0.00 17 1019.7
20260508193048 74 30 1.7 6.1 0.00 0.00 0.00 17 1020.0
20260508191541 74 33 0.9 7.0 0.00 0.00 0.00 17 1020.3
20260508190045 73 117 1.7 7.0 0.00 0.00 0.00 17 1020.3
20260508184544 73 53 0.0 3.5 0.00 0.00 0.00 19 1020.5
20260508183044 73 321 0.9 4.3 0.00 0.00 0.00 22 1020.7
20260508181543 71 0 0.9 4.3 0.00 0.00 0.00 24 1020.8
20260508180046 70 82 0.0 2.6 0.00 0.00 0.00 20 1020.9
20260508174550 69 314 0.9 2.6 0.00 0.00 0.00 23 1021.0
20260508173042 67 94 0.9 4.3 0.00 0.00 0.00 30 1021.0
20260508171539 65 0 0.0 0.0 0.00 0.00 0.00 40 1021.2
20260508170042 62 120 0.9 4.3 0.00 0.00 0.00 44 1021.2
20260508164546 61 221 0.9 3.5 0.00 0.00 0.00 45 1021.3
20260508163046 60 0 0.0 3.5 0.00 0.00 0.00 46 1021.5
20260508161545 59 260 0.9 3.5 0.00 0.00 0.00 45 1021.6
20260508160039 58 0 0.0 0.0 0.00 0.00 0.00 45 1021.6
20260508154540 55 0 0.0 0.0 0.00 0.00 0.00 50 1021.8
20260508153046 52 0 0.0 2.6 0.00 0.00 0.00 56 1021.9
20260508151545 50 236 0.0 3.5 0.00 0.00 0.00 63 1021.8
20260508150043 48 178 0.9 3.5 0.00 0.00 0.00 59 1021.9
20260508144541 45 0 0.0 2.6 0.00 0.00 0.00 69 1021.8
20260508143053 44 0 0.0 0.0 0.00 0.00 0.00 75 1021.9
20260508141540 43 0 0.0 0.0 0.00 0.00 0.00 76 1021.6
20260508140047 41 0 0.0 0.0 0.00 0.00 0.00 77 1021.6
20260508134546 40 0 0.0 0.0 0.00 0.00 0.00 76 1021.5
20260508133042 39 0 0.0 0.0 0.00 0.00 0.00 77 1021.4
20260508131543 39 0 0.0 0.0 0.00 0.00 0.00 77 1021.1
20260508130046 39 0 0.0 0.0 0.00 0.00 0.00 78 1021.1
20260508124539 39 0 0.0 0.0 0.00 0.00 0.00 77 1021.1
20260508123044 40 0 0.0 0.0 0.00 0.00 0.00 77 1020.9
20260508121543 40 0 0.0 0.0 0.00 0.00 0.00 80 1020.7
20260508120043 40 0 0.0 0.0 0.00 0.00 0.00 79 1020.8
20260508114553 40 0 0.0 0.0 0.00 0.00 0.00 80 1020.8
20260508113046 41 0 0.0 0.0 0.00 0.00 0.00 81 1020.8
20260508111558 40 0 0.0 0.9 0.00 0.00 0.00 80 1020.6
20260508110047 41 0 0.0 0.0 0.00 0.00 0.00 78 1020.8
20260508104541 41 0 0.0 0.0 0.00 0.00 0.00 80 1020.6
20260508103041 43 0 0.0 0.0 0.00 0.00 0.00 78 1020.7
20260508101546 44 0 0.0 0.0 0.00 0.00 0.00 75 1020.5
20260508100044 46 0 0.0 0.0 0.00 0.00 0.00 74 1020.4
20260508094542 46 0 0.0 0.0 0.00 0.00 0.00 74 1020.5
20260508093039 46 0 0.0 0.0 0.00 0.00 0.00 74 1020.6
20260508091602 47 0 0.0 0.0 0.00 0.00 0.00 74 1020.5
20260508090047 47 0 0.0 0.0 0.00 0.00 0.00 71 1020.5
20260508084545 48 0 0.0 0.0 0.00 0.00 0.00 70 1020.5
20260508083050 49 0 0.0 0.0 0.00 0.00 0.00 69 1020.7
20260508081549 49 0 0.0 2.6 0.00 0.00 0.00 68 1021.0
20260508080044 48 123 0.9 2.6 0.00 0.00 0.00 71 1020.9
20260508074541 50 232 0.0 2.6 0.00 0.00 0.00 68 1021.0
20260508073040 52 61 0.0 3.5 0.00 0.00 0.00 64 1020.8
20260508071541 53 0 0.0 0.0 0.00 0.00 0.00 65 1020.9
20260508070050 53 0 0.0 0.0 0.00 0.00 0.00 63 1021.0
20260508064539 53 0 0.0 0.0 0.00 0.00 0.00 63 1021.0
20260508063046 51 0 0.0 0.0 0.00 0.00 0.00 66 1021.0
20260508061543 52 0 0.0 0.0 0.00 0.00 0.00 65 1021.0
20260508060044 51 225 0.0 2.6 0.00 0.00 0.00 68 1021.0
20260508054548 52 150 0.0 7.0 0.00 0.00 0.00 66 1020.9
20260508053039 52 157 2.6 4.3 0.00 0.00 0.00 64 1020.7
20260508051544 55 170 3.5 7.8 0.00 0.00 0.00 58 1020.7
20260508050052 58 188 0.0 2.6 0.00 0.00 0.00 51 1020.7
20260508044546 60 159 1.7 5.2 0.00 0.00 0.00 47 1020.9
20260508043048 63 257 2.6 7.8 0.00 0.00 0.00 43 1020.7
20260508041541 63 295 3.5 7.8 0.00 0.00 0.00 45 1020.5
20260508040044 64 19 0.9 11.3 0.00 0.00 0.00 42 1020.2
20260508034550 64 294 2.6 12.2 0.00 0.00 0.00 40 1019.9
20260508033040 65 315 2.6 10.4 0.00 0.00 0.00 39 1019.7
20260508031545 66 330 0.9 7.0 0.00 0.00 0.00 37 1019.6
20260508030043 67 330 2.6 7.8 0.00 0.00 0.00 34 1019.4
20260508024555 69 318 1.7 8.7 0.00 0.00 0.00 27 1019.2
20260508023046 71 262 6.1 10.4 0.00 0.00 0.00 25 1019.0
20260508021545 71 244 3.5 9.6 0.00 0.00 0.00 26 1018.9
20260508020041 72 211 3.5 10.4 0.00 0.00 0.00 27 1018.9
20260508014547 73 207 3.5 7.8 0.00 0.00 0.00 28 1018.7
20260508013045 74 207 5.2 9.6 0.00 0.00 0.00 26 1018.6
20260508011600 74 250 4.3 11.3 0.00 0.00 0.00 27 1018.5
20260508010043 75 196 6.1 13.0 0.00 0.00 0.00 25 1018.5
20260508004542 75 229 5.2 13.0 0.00 0.00 0.00 25 1018.4
20260508003045 75 192 7.8 13.9 0.00 0.00 0.00 24 1018.5
20260508001545 76 259 7.0 13.9 0.00 0.00 0.00 25 1018.4
20260508000045 76 261 7.0 14.8 0.00 0.00 0.00 24 1018.5
20260507234548 76 203 7.8 13.9 0.00 0.00 0.00 24 1018.5
20260507233040 78 242 3.5 14.8 0.00 0.00 0.00 24 1018.4
20260507231546 77 246 5.2 15.6 0.00 0.00 0.00 23 1018.5
20260507230047 77 203 7.0 15.6 0.00 0.00 0.00 23 1018.5
20260507224545 77 228 6.1 11.3 0.00 0.00 0.00 24 1018.7
20260507223044 77 234 6.1 17.4 0.00 0.00 0.00 28 1018.7
20260507221539 77 245 7.0 13.9 0.00 0.00 0.00 27 1018.8
20260507220046 77 248 7.8 13.9 0.00 0.00 0.00 28 1018.9
20260507214543 77 189 6.1 14.8 0.00 0.00 0.00 25 1019.0
20260507213048 77 195 7.8 14.8 0.00 0.00 0.00 27 1019.0
20260507211547 76 250 7.8 16.5 0.00 0.00 0.00 25 1019.2
20260507210044 77 251 6.1 13.9 0.00 0.00 0.00 28 1019.3
20260507204543 77 249 7.0 16.5 0.00 0.00 0.00 25 1019.3